This demonstration page uses our WeatherBlox Daily Observations layout. Learn more.

Left ArrowRight Arrow

Hourly Observations for April 16, 2019

Temp ( °F °C ) Dew Point ( °F °C ) Humidity (%) Winds ( mph kmh ) Pressure ( in mb ) Visibility ( mi km ) Precip ( " mm )
12:15 am 00:15 Clear 51 10.6 42 5.5 71 71 NE 14 22 29.78 1008 10 16 N/A
12:35 am 00:35 Clear 50 10.1 41 5 71 71 NE 15 24 29.77 1008 10 16 N/A
12:55 am 00:55 Clear 49 9.6 40 4.6 71 71 NE 15 24 29.77 1008 10 16 N/A
1:15 am 01:15 Clear 49 9.2 40 4.5 73 73 NE 13 20 29.78 1008 10 16 N/A
1:35 am 01:35 Clear 48 8.9 40 4.2 73 73 NE 8 13 29.79 1009 10 16 N/A
1:55 am 01:55 Clear 47 8.5 39 4.1 74 74 NE 7 11 29.79 1009 10 16 N/A
2:15 am 02:15 Clear 47 8.2 39 4.1 76 76 NE 7 11 29.80 1009 10 16 N/A
2:35 am 02:35 Clear 47 8.2 39 4 75 75 NE 8 13 29.80 1009 10 16 N/A
2:55 am 02:55 Clear 47 8.1 39 3.7 74 74 NE 9 15 29.80 1009 10 16 N/A
3:15 am 03:15 Clear 46 8 38 3.5 74 74 NE 12 19 29.80 1009 10 16 N/A
3:35 am 03:35 Clear 46 8 38 3.2 72 72 NE 9 15 29.80 1009 10 16 N/A
3:55 am 03:55 Clear 46 7.8 37 3 72 72 NE 7 11 29.81 1010 10 16 N/A
4:15 am 04:15 Clear 46 7.7 37 3 72 72 NE 8 13 29.82 1010 10 16 N/A
4:35 am 04:35 Clear 46 7.6 37 2.7 71 71 NE 9 15 29.81 1010 10 16 N/A
4:55 am 04:55 Clear 45 7.3 37 2.6 72 72 ENE 9 15 29.83 1010 10 16 N/A
5:15 am 05:15 Clear 45 7.2 37 2.5 72 72 NE 8 13 29.84 1010 10 16 N/A
5:35 am 05:35 Clear 45 7 37 2.5 73 73 NE 7 11 29.84 1010 10 16 N/A
5:55 am 05:55 Clear 44 6.8 36 2.3 73 73 NE 8 13 29.83 1010 10 16 N/A
6:15 am 06:15 Clear 44 6.9 36 2.2 72 72 NE 8 13 29.84 1010 10 16 N/A
6:35 am 06:35 Clear 45 7 36 2.1 71 71 ENE 8 13 29.85 1011 10 16 N/A
6:55 am 06:55 Clear 44 6.8 36 2 72 72 ENE 6 9 29.86 1011 10 16 N/A
7:15 am 07:15 Sunny 45 7 36 2.1 71 71 ENE 9 15 29.86 1011 10 16 N/A
7:35 am 07:35 Sunny 46 7.8 36 2.2 68 68 ENE 10 17 29.85 1011 10 16 N/A
7:55 am 07:55 Sunny 47 8.5 36 2.3 65 65 NE 8 13 29.87 1011 10 16 N/A
8:15 am 08:15 Sunny 47 8.5 37 2.5 66 66 NE 8 13 29.88 1012 10 16 N/A
8:35 am 08:35 Sunny 48 9.1 37 2.5 64 64 NE 12 19 29.86 1011 10 16 N/A
8:55 am 08:55 Sunny 49 9.6 37 2.6 62 62 ENE 13 20 29.85 1011 10 16 N/A
9:15 am 09:15 Sunny 51 10.7 37 3 59 59 ENE 12 19 29.84 1011 10 16 N/A
9:35 am 09:35 Sunny 52 11.3 38 3.3 58 58 ENE 13 20 29.85 1011 10 16 N/A
9:55 am 09:55 Sunny 54 12.3 39 3.9 57 57 ENE 15 24 29.83 1010 10 16 N/A
10:15 am 10:15 Sunny 56 13.1 40 4.2 55 55 ENE 14 22 29.82 1010 10 16 N/A
10:35 am 10:35 Sunny 58 14.4 41 4.8 53 53 ENE 16 26 29.80 1009 10 16 N/A
10:55 am 10:55 Sunny 59 15.1 41 5 51 51 E 16 26 29.80 1009 10 16 N/A
11:15 am 11:15 Sunny 61 16.1 42 5.5 50 50 ENE 16 26 29.79 1009 10 16 N/A
11:35 am 11:35 Sunny 63 17 42 5.8 48 48 E 15 24 29.79 1009 10 16 N/A
11:55 am 11:55 Sunny 64 17.5 42 5.7 46 46 E 14 22 29.78 1009 10 16 N/A
12:15 pm 12:15 Sunny 66 18.7 43 6.2 44 44 E 16 26 29.77 1008 10 16 N/A
12:35 pm 12:35 Sunny 67 19.2 44 6.6 44 44 E 16 26 29.76 1008 10 16 N/A
12:55 pm 12:55 Sunny 68 20 45 7.1 43 43 ESE 17 28 29.75 1008 10 16 N/A
1:15 pm 13:15 Sunny 69 20.5 46 7.5 43 43 ESE 17 28 29.74 1007 10 16 N/A
1:35 pm 13:35 Sunny 70 21 46 7.6 42 42 E 16 26 29.71 1006 10 16 N/A
1:55 pm 13:55 Sunny 70 21.1 46 7.9 43 43 E 20 31 29.70 1006 10 16 N/A
2:15 pm 14:15 Sunny 71 21.7 46 7.9 41 41 E 17 28 29.69 1005 10 16 N/A
2:35 pm 14:35 Sunny 71 21.6 47 8.3 43 43 ESE 16 26 29.68 1005 10 16 N/A
2:55 pm 14:55 Sunny 72 22 47 8.3 42 42 E 15 24 29.67 1005 10 16 N/A
3:15 pm 15:15 Sunny 73 22.9 46 7.8 38 38 ESE 17 28 29.65 1004 10 16 N/A
3:35 pm 15:35 Sunny 73 23 47 8.1 39 39 ESE 17 28 29.65 1004 10 16 N/A
3:55 pm 15:55 Sunny 74 23.4 47 8.5 39 39 E 18 30 29.62 1003 10 16 N/A
4:15 pm 16:15 Sunny 75 23.7 47 8.4 38 38 E 16 26 29.61 1003 10 16 N/A
4:35 pm 16:35 Sunny 75 24 47 8.6 38 38 E 15 24 29.60 1002 10 16 N/A
4:55 pm 16:55 Sunny 76 24.2 48 8.7 37 37 E 20 31 29.59 1002 10 16 N/A
5:15 pm 17:15 Sunny 76 24.2 48 9.1 38 38 E 20 31 29.58 1002 10 16 N/A
5:35 pm 17:35 Sunny 75 24.1 49 9.4 39 39 E 17 28 29.58 1002 10 16 N/A
5:55 pm 17:55 Sunny 76 24.2 49 9.7 40 40 E 18 30 29.57 1001 10 16 N/A
6:15 pm 18:15 Sunny 75 24 50 9.8 41 41 ESE 21 33 29.57 1001 10 16 N/A
6:35 pm 18:35 Sunny 75 23.8 51 10.6 43 43 E 16 26 29.57 1001 10 16 N/A
6:55 pm 18:55 Sunny 74 23.5 51 10.5 44 44 E 14 22 29.57 1001 10 16 N/A
7:15 pm 19:15 Sunny 74 23.3 51 10.6 45 45 ESE 12 19 29.58 1002 10 16 N/A
7:35 pm 19:35 Sunny 73 22.7 51 10.5 46 46 ESE 13 20 29.58 1002 10 16 N/A
7:55 pm 19:55 Sunny 71 21.7 51 10.5 49 49 ESE 10 17 29.59 1002 10 16 N/A
8:15 pm 20:15 Sunny 69 20.5 51 10.5 53 53 ESE 9 15 29.60 1002 10 16 N/A
8:35 pm 20:35 Clear 68 19.9 51 10.5 55 55 ESE 8 13 29.60 1002 10 16 N/A
8:55 pm 20:55 Clear 65 18.6 51 10.5 59 59 ESE 9 15 29.61 1003 10 16 N/A
9:15 pm 21:15 Clear 65 18.6 51 10.5 59 59 E 10 17 29.61 1003 10 16 N/A
9:35 pm 21:35 Clear 63 17.3 50 10.1 63 63 ENE 8 13 29.63 1003 10 16 N/A
9:55 pm 21:55 Clear 59 15.2 50 10 71 71 E 8 13 29.64 1004 10 16 N/A
10:15 pm 22:15 Clear 59 15.2 50 10 71 71 ENE 7 11 29.64 1004 10 16 N/A
10:35 pm 22:35 Clear 56 13.1 49 9.3 78 78 ENE 5 7 29.66 1005 10 16 N/A
10:55 pm 22:55 Clear 54 12.4 47 8.6 78 78 NE 5 7 29.67 1005 10 16 N/A
11:15 pm 23:15 Clear 54 12.3 48 9 80 80 N N/A 29.67 1005 10 16 N/A
11:35 pm 23:35 Clear 53 11.7 47 8.5 81 81 N N/A 29.67 1005 10 16 N/A
11:55 pm 23:55 Clear 53 11.5 47 8.5 82 82 ENE 3 6 29.66 1004 10 16 N/A

Powered by AerisWeather